Tracking 19794 objects as of 21-Jul-2019
HD Live streaming from Space Station
objects crossing your sky now

THORAD DELTA 1 DEB

Track THORAD DELTA 1 DEB now!
10-day predictions


NORAD ID: 37148
Int'l Code: 1974-089FH
Perigee: 943.9 km
Apogee: 1,021.1 km
Inclination: 101.6 °
Period: 104.6 minutes
Semi major axis: 7353 km
RCS: 0.0531 m2 (small)
Launch date: November 15, 1974
Source: United States (US)
Launch site: AIR FORCE WESTERN TEST RANGE (AFWTR)

Note: This is SATELLITE DEBRIS
aabbcc
Your satellite tracking list
Your tracking list is empty




NASA's NSSDC Master Catalog

Two Line Element Set (TLE):
1 37148U 74089FH  19201.58814435  .00005198  00000-0  52902-2 0  9995
2 37148 101.6151  61.7031 0052441 168.8059 218.1274 13.76773281445295
Source of the keplerian elements: AFSPC